Retour au catalogue

ION SCV-015

ActifScienceSSO
NORAD 58469·PAYLOAD·🇮🇹 Italy

Lancé Dec 1, 2023 depuis Vandenberg Space Force Base

Loading…

Prochains Passages (prochaines 24 heures)

TLE

FraisSource: Space-Track

Époque: Sep 14, 2026, 23:36 UTC

1 58469U 23185H   26257.98401171  .00006675  00000-0  20496-3 0  9992
2 58469  97.5743 348.9553 0010108 134.9603 225.2461 15.34030080154840

Suivez ION SCV-015 en temps réel avec AllMySat

Download on the App Store